Location: Caixon
(43.4106°N, 0.0273°E)
Time: 20:48:31
(UTC+00:00)

GEOS 3 Rocket - Pass Details

Date: 16 October 2021
Orbit: 789 x 830 km, 115.0° (Epoch: 07 December)

Event Time Altitude Azimuth Distance (km) Brightness Sun altitude
Rises 04:27:16 0° 38° (NE) 3,318 7.5 -20.3°
Reaches altitude 10° 04:29:35 10° 40° (NE) 2,379 6.7 -19.9°
Maximum altitude 04:34:44 74° 125° (SE) 829 3.7 -19.0°
Enters shadow 04:39:16 13° 210° (SSW) 2,128 5.5 -18.1°
